CAPE
704 820 871 844 926 886 945 996 1131 1316 1388 1425 1430 1533 1676 1878 1781 1847 1946 2117 2217 2184 2118 2073 2148 2139 2128 2299 2301 2493 2713 2860 2803 2912 2908 2932 2892 2961 2924 2902 3095 3064 2956 2988 2885 3035 3101 2906 2790 2712 2658 2972 3084 2844 2749 2547 2418 2233 2482 2335 2531 2215 1944 1874 1858 2072 1946 1423 1667 2076 2556 2604 2440 2871 2660 2749 2928 3088 2927 3533 3515 3204 3098 3154 3181
693 868 981 974 952 921 945 959 1038 1228 1357 1424 1448 1477 1551 1751 1839 1898 1978 2018 2108 2232 2244 2193 2156 2136 2152 2197 2325 2399 2594 2720 2672 2781 2921 2908 3015 3040 3016 2957 2900 2894 2769 2929 2932 2776 2913 2914 2911 2812 2705 2863 2966 2910 2849 2624 2431 2260 2415 2121 2072 2102 2097 2157 1996 1961 2005 1925 1844 1840 1777 2473 2434 2490 2430 2798 2836 3149 3294 3392 3119 2923 2882 3100 3250
802 938 1044 1070 1090 1077 1043 1078 1074 1193 1340 1382 1472 1498 1509 1570 1776 1944 2033 2106 2146 2207 2258 2276 2298 2224 2234 2243 2265 2312 2489 2595 2617 2712 2813 2847 2844 2820 2932 2898 2864 2876 2824 2888 2842 2774 2875 2907 2900 2828 2725 2875 2896 2822 2670 2591 2435 2473 2413 2234 2257 2220 1957 1966 1954 1959 1910 2081 1688 1593 1950 2444 2534 2594 2556 2425 2821 3037 3078 3398 3179 2896 2695 2698 2935
1116 1075 1122 1200 1221 1226 1248 1227 1252 1273 1332 1375 1415 1502 1558 1581 1578 1728 1920 2016 2067 2148 2241 2311 2352 2385 2406 2409 2396 2364 2345 2513 2621 2604 2706 2747 2797 2822 2803 2849 2924 2894 2898 2944 2900 2846 2894 2968 2927 2773 2712 2758 2766 2733 2602 2397 2393 2490 2481 2413 2311 2234 2136 1948 1820 2126 1843 1855 1947 1790 2012 1817 2170 2143 2080 2322 2616 3046 3072 3119 2779 2581 2510 2573 2884
1476 1326 1308 1415 1381 1400 1387 1410 1416 1446 1445 1442 1446 1480 1562 1633 1662 1645 1610 1633 1652 1690 1770 2010 2139 2247 2339 2410 2447 2436 2381 2406 2564 2629 2656 2706 2770 2844 2893 2842 2851 2920 2927 2933 3147 3060 2899 2887 2926 2801 2730 2684 2720 2584 2599 2550 2532 2439 2488 2541 2496 2397 2372 2400 2264 1967 1749 1841 2060 1710 1599 1813 2147 2205 2446 2516 2921 2900 2666 2459 2604 2585 2857 2610 2531
1556 1479 1539 1529 1481 1491 1522 1529 1547 1556 1563 1559 1543 1534 1552 1602 1671 1710 1717 1685 1671 1675 1681 1671 1919 1994 2111 2288 2344 2331 2317 2326 2417 2582 2663 2699 2728 2789 2868 2870 2793 2792 2809 2791 2777 2912 2930 2936 2806 2766 2700 2663 2755 2769 2679 2647 2537 2445 2442 2440 2446 2396 2365 2318 2192 2058 1902 2002 1913 1938 1813 1839 2063 2008 2056 2595 2755 2823 2735 2783 2680 2515 2676 2583 2092
1545 1602 1597 1558 1495 1507 1515 1542 1582 1599 1623 1641 1645 1647 1622 1588 1586 1608 1660 1683 1680 1649 1609 1577 1611 1785 1867 1978 2145 2236 2213 2252 2291 2352 2475 2596 2670 2768 2754 2752 2761 2681 2671 2656 2667 2676 2692 2708 2735 2666 2675 2665 2619 2690 2721 2646 2444 2626 2661 2678 2520 2133 2133 2119 2026 1960 1867 1815 1779 1668 1760 1732 1548 1881 2134 2020 2404 2412 2558 2646 1983 1884 2173 1974 1890
1491 1579 1654 1716 1673 1628 1590 1544 1511 1545 1589 1641 1654 1693 1693 1662 1586 1554 1536 1534 1555 1560 1552 1521 1501 1484 1629 1753 1915 2051 2076 2096 2158 2167 2233 2362 2422 2533 2641 2745 2735 2722 2658 2655 2548 2536 2562 2582 2590 2571 2629 2705 2632 2651 2632 2679 2634 2525 2557 2468 2386 2206 2142 2105 1891 1844 1852 1795 1721 1801 1685 1543 1650 1577 1584 1401 1640 1816 2369 2469 1880 1766 1906 2090 1833
1500 1510 1600 1693 1768 1782 1790 1784 1786 1789 1778 1771 1828 1861 1802 1755 1688 1577 1549 1556 1583 1619 1622 1563 1477 1459 1453 1532 1709 1828 1848 1883 1928 1957 1983 2049 2167 2288 2445 2525 2629 2688 2675 2596 2519 2439 2370 2374 2364 2372 2587 2965 2795 2568 2455 2569 2525 2620 2586 2255 2238 2124 2176 1978 1887 1814 1721 1529 1627 1503 1258 1349 1407 1278 1278 1330 1341 1331 1524 1830 1996 1981 2007 1763 1804
1440 1566 1557 1559 1584 1591 1618 1648 1709 1743 1732 1756 1780 1808 1862 1869 1848 1768 1639 1507 1486 1473 1481 1491 1444 1402 1380 1316 1395 1559 1711 1756 1757 1746 1794 1897 1879 1943 2109 2258 2354 2445 2529 2498 2360 2254 2192 2148 2187 2610 2989 3132 2906 2557 2377 2289 2502 2629 2626 2412 2183 2106 1995 1932 1896 1814 1654 1661 1627 1532 1482 1458 1399 1292 1297 1230 1227 1315 1392 1678 1588 1772 1838 1915 1839
1490 1413 1416 1461 1537 1529 1538 1590 1592 1548 1466 1386 1722 1757 1746 1769 1796 1800 1750 1697 1617 1474 1334 1253 1174 1159 1177 1176 1128 1132 1442 1548 1511 1561 1638 1684 1747 1754 1771 1874 1936 2052 2106 2202 2256 2162 2066 1914 1853 2040 2629 3061 3432 3293 3073 2788 2532 2331 2247 2403 2814 2294 2012 1893 1887 1781 1634 1618 1644 1441 1342 1352 1333 1337 1230 1025 1150 1146 1344 1496 1528 1692 1689 1579 1340
1128 1172 1092 1072 1101 1191 1319 1341 1205 1141 1162 1259 1422 1593 1649 1678 1719 1736 1702 1660 1568 1462 1348 1218 1084 945 877 907 920 886 1086 1110 1196 1335 1444 1524 1576 1640 1655 1628 1585 1613 1733 1838 1929 1934 1899 1756 1610 1529 1557 1666 1835 2068 2179 2356 2440 2448 2341 2222 2071 1910 1927 2219 2115 2049 1684 1490 1474 1432 1275 1285 1191 1283 1172 1044 1251 1527 1594 1548 1661 1654 1684 1583 1363
858 729 736 708 800 828 835 849 877 962 1141 1315 1433 1481 1488 1463 1454 1446 1479 1435 1354 1297 1310 1223 1111 923 708 730 689 662 660 690 788 888 1025 1167 1287 1369 1443 1586 1517 1495 1478 1519 1556 1655 1624 1695 1551 1394 1219 1695 2243 2150 1767 1589 1193 1165 1157 1185 1219 1180 1086 1080 1240 1819 1987 1812 1497 1360 1359 1298 1278 1212 1258 1326 1376 1363 1399 1660 1649 1549 1516 1413 1370
886 882 924 891 916 889 842 920 974 975 1022 1125 1210 1262 1302 1297 1245 1185 1156 1151 1138 1096 1135 1201 1138 1067 1106 967 847 754 781 764 736 724 719 767 875 940 1032 1135 1376 1422 1420 1407 1300 1388 1331 1368 1404 1337 1320 1301 1392 1556 1576 1534 1412 1253 1081 977 973 965 941 933 864 752 633 1246 1554 1401 1303 1356 1101 1041 1213 1279 1332 1261 1317 1510 1352 1508 1447 1282 1312
719 754 843 880 950 978 997 1007 935 931 968 931 933 918 928 1066 1042 1099 1082 1024 1064 1114 1142 1138 1092 1175 1239 1284 1297 1218 1039 774 729 729 745 727 667 661 681 873 939 1129 1280 1304 1290 1356 1306 1333 1292 1298 1222 1212 1133 1096 1032 1009 1009 892 872 861 819 756 716 702 703 699 495 224 719 1113 1128 1234 1191 1118 1109 1229 1351 1345 1455 1369 1570 1560 1531 1544 1324
279 609 622 798 911 888 874 920 888 878 879 950 943 970 998 1014 1063 1095 1069 1052 992 980 1066 1092 1153 1204 1234 1271 1219 1224 1254 1223 1149 1057 944 877 872 741 171 30 315 749 831 1023 1126 1204 1220 1265 1226 1234 1136 1109 1056 991 1049 1203 999 1030 1043 1042 1043 1011 985 941 875 796 706 585 555 616 685 740 495 765 872 1012 1168 1608 1380 1192 758 785 747 661 604
300 278 425 458 569 495 470 454 626 719 786 877 906 921 930 970 1012 985 984 1070 1076 1079 1062 1170 1147 1109 1110 1135 1071 1144 1200 1203 1206 1169 1137 1069 962 953 964 914 802 683 474 614 783 1038 1134 1164 1124 1168 1159 1083 1002 1020 1040 1054 1101 1126 1142 1134 1112 1049 1030 1006 950 887 825 762 701 58 0 0 0 0 0 0 0 302 390 345 470 554 679 665 713
225 113 0 280 365 406 414 394 450 548 634 680 752 765 715 685 718 814 896 953 974 963 989 987 949 948 954 1005 1036 1111 1097 1091 1169 1243 1201 1138 1091 1048 1027 1000 998 998 995 900 801 789 960 1180 1605 1446 1155 1114 980 1029 1079 1096 1111 1115 1100 1054 982 924 880 882 838 824 750 275 0 0 0 0 0 0 0 0 0 0 0 178 361 549 634 548 640
180 190 171 148 216 308 322 318 349 368 407 434 433 410 418 440 459 461 513 625 720 765 791 789 770 774 835 879 909 1041 1051 1137 1178 1191 1230 1225 1175 1138 1120 1102 1062 1044 1019 1023 1008 987 935 1047 1196 1544 1572 1432 1146 1101 1090 1063 1025 961 921 844 797 810 910 954 1026 1016 962 918 903 878 377 303 0 0 0 0 0 0 0 30 313 597 703 768 839
0 0 0 5 8 149 135 140 152 191 231 241 260 290 328 350 344 321 303 331 432 490 554 629 617 557 560 671 754 804 856 924 985 1069 1101 1171 1210 1221 1241 1227 1201 1164 1124 1075 1056 1039 1019 1000 1000 1002 978 961 969 1008 1030 1018 1046 1071 1145 1217 1233 1319 1290 1280 1317 1382 1454 1493 1509 1512 1459 1417 1306 1069 841 577 421 308 677 773 871 990 1077 1137 1274
0 0 0 0 0 0 0 0 0 0 0 0 0 64 151 195 237 274 280 258 231 177 159 183 222 302 370 453 478 568 635 705 766 776 894 979 1044 1126 1185 1220 1261 1278 1282 1252 1189 1130 1094 1081 1068 1056 1084 1090 1079 1106 1140 1169 1217 1264 1281 1268 1192 1141 1165 1227 1334 1409 1460 1487 1516 1519 1506 1523 1472 1398 1248 1041 930 925 996 1089 1172 1256 1275 1398 1598
0 0 0 0 0 0 0 0 0 0 0 0 0 0 0 0 0 0 0 0 0 174 251 198 158 206 311 358 406 396 407 459 526 645 704 712 843 949 1038 1090 1126 1148 1164 1203 1256 1272 1254 1226 1169 1117 1096 1082 1100 1107 1134 1180 1207 1202 1175 1106 1037 1000 1065 1072 1093 1123 1166 1192 1214 1261 1304 1351 1383 1428 1374 1310 1192 1160 1182 1223 1275 1306 1282 1384 1551
0 0 0 0 0 0 0 0 0 0 0 0 0 0 0 0 0 0 0 0 0 0 0 0 0 93 188 221 245 295 338 348 432 479 510 519 569 672 656 806 1063 1115 1127 1158 1150 1153 1122 1081 1085 1138 1169 1163 1146 1131 1118 1118 1130 1150 1175 1185 1179 1190 1186 1174 1157 1141 1119 1075 1029 991 950 938 956 990 1059 1217 1320 1312 1309 1290 1311 1311 1278 1273 1480
0 0 0 0 0 0 0 0 0 0 0 0 0 0 0 0 0 0 0 0 0 0 0 0 0 0 0 0 0 52 112 125 198 314 338 354 428 472 578 749 793 790 863 942 964 941 966 1010 1044 1030 1024 1081 1149 1222 1271 1275 1301 1302 1307 1296 1274 1254 1227 1239 1238 1255 1291 1286 1256 1211 1186 1159 1107 1087 1067 1030 1063 1178 1268 1318 1332 1272 1237 1232 1234
0 0 0 0 0 0 0 0 0 0 0 0 0 0 0 0 0 0 0 0 0 0 0 0 0 0 0 0 0 0 0 0 0 0 45 166 230 284 299 343 480 612 689 751 790 832 875 898 920 926 904 916 938 972 991 1010 1056 1111 1141 1177 1196 1206 1192 1164 1173 1203 1258 1315 1369 1427 1455 1487 1430 1372 1349 1288 1211 1155 1119 1161 1209 1266 1292 1275 1212
0 0 0 0 0 0 0 0 0 0 0 0 0 0 0 0 0 0 0 0 0 0 0 0 0 0 0 0 0 0 0 0 0 0 0 0 0 55 117 170 173 226 331 471 604 694 695 705 720 723 747 777 761 734 732 730 728 768 881 956 1006 1029 1042 1053 1069 1096 1156 1224 1300 1342 1381 1402 1460 1478 1482 1485 1460 1466 1418 1417 1408 1425 1394 1365 1307
0 0 0 0 0 0 0 0 0 0 0 0 0 0 0 0 0 0 0 0 0 0 0 0 0 0 0 0 0 0 0 0 0 0 0 0 0 0 0 0 0 18 22 115 185 252 360 418 516 548 557 600 653 719 738 675 619 635 643 685 738 805 904 953 981 970 999 1030 1104 1176 1225 1267 1303 1372 1450 1466 1494 1492 1459 1433 1409 1407 1440 1464 1452
0 0 0 0 0 0 0 0 0 0 0 0 0 0 0 0 0 0 0 0 0 0 0 0 0 0 0 0 0 0 0 0 0 0 0 0 0 0 0 0 0 0 0 0 0 60 65 0 53 157 321 368 382 393 373 320 345 380 434 479 508 538 652 822 918 946 928 910 941 985 1041 1089 1118 1158 1163 1204 1252 1303 1284 1250 1256 1286 1338 1376 1370
0 0 0 0 0 2 2 0 0 0 0 0 0 0 0 0 0 0 0 0 0 0 0 0 0 0 0 0 0 0 0 0 0 0 0 0 0 0 0 0 0 0 0 0 0 0 0 0 1 2 4 5 5 7 8 8 10 139 264 334 389 423 493 598 685 798 832 850 834 836 839 857 887 904 898 922 945 991 1061 1094 1134 1163 1219 1241 1250
0 0 0 0 0 0 1 0 0 0 0 0 0 0 0 0 0 0 0 1 0 0 0 0 0 0 0 0 0 0 0 0 0 0 0 0 0 0 0 0 0 0 0 0 0 0 0 0 0 0 1 1 2 2 2 2 4 3 2 84 134 266 294 312 369 438 508 578 612 652 708 730 758 756 743 754 784 815 846 844 865 924 1094 1196 1178
0 0 0 0 7 1 1 0 1 0 0 0 0 0 0 0 0 0 2 0 0 0 0 0 0 0 0 0 0 0 0 0 0 0 0 0 0 0 0 0 0 0 0 0 0 0 0 0 0 0 0 0 0 0 0 1 2 2 2 3 5 16 68 120 146 176 208 22 228 284 368 468 535 551 542 572 561 571 612 698 724 722 622 895 1123
0 0 0 5 1 2 1 1 1 1 0 0 0 0 0 0 0 3 2 3 4 4 3 1 0 0 0 0 0 0 0 0 0 0 0 0 0 0 0 0 0 0 0 0 0 0 0 0 0 0 0 0 0 0 0 0 2 2 3 2 2 2 4 28 44 70 172 194 241 324 354 367 388 402 452 484 557 595 674 736 747 766 832 845 826
0 0 2 1 0 0 0 1 1 0 0 0 0 0 0 0 1 0 0 4 5 3 2 0 0 0 0 2 0 0 0 0 0 0 0 0 0 0 0 0 0 0 0 0 0 0 0 0 0 0 0 0 0 0 1 2 2 3 3 4 3 4 5 6 8 9 8 6 6 131 191 225 93 125 288 323 359 455 525 569 612 620 649 684 715
0 1 2 0 0 0 0 0 0 0 0 1 2 2 1 1 2 9 9 4 0 0 0 0 0 0 0 9 0 0 0 0 0 0 0 0 0 0 0 0 0 0 0 0 0 0 0 0 0 0 0 0 0 0 2 2 4 4 4 4 4 5 6 9 9 8 8 7 6 4 7 6 5 7 15 64 260 437 482 505 525 550 587 615 632
0 0 0 0 0 0 0 0 0 0 1 2 2 2 1 2 9 8 4 2 7 4 2 0 0 0 0 0 0 0 0 0 0 0 0 0 0 0 0 0 0 0 0 0 0 0 0 0 0 0 0 0 0 0 0 1 2 3 4 5 6 6 8 7 7 8 7 8 8 10 10 9 11 9 8 7 6 5 74 301 384 467 532 591 619
0 0 0 0 0 0 0 0 0 0 4 3 5 1 1 2 2 2 2 3 10 5 2 0 0 0 0 0 0 0 0 0 0 0 0 0 0 0 0 0 0 0 0 0 0 0 0 0 0 0 0 0 0 0 1 2 3 5 8 9 7 7 6 8 10 10 8 10 12 14 11 12 10 8 9 9 8 6 6 6 8 16 49 134 236
0 0 0 0 0 0 0 0 0 2 4 5 2 0 0 1 2 1 3 3 4 6 6 4 1 0 0 1 0 0 0 0 0 0 0 0 0 0 0 0 0 0 0 0 0 0 0 0 0 0 0 0 0 2 4 5 6 5 5 8 10 7 7 8 8 11 11 11 10 13 10 7 8 8 9 6 6 7 6 9 10 7 6 122 230
0 0 0 0 0 0 0 0 0 1 1 4 1 0 0 0 1 2 4 4 6 5 5 6 5 3 0 0 0 0 0 0 0 0 0 0 0 0 0 0 0 0 0 0 0 0 0 0 0 0 0 0 0 3 2 2 4 5 5 5 7 7 6 9 10 9 10 8 7 8 9 10 11 11 10 7 5 6 7 8 8 6 5 6 5
0 0 0 0 0 0 0 0 0 2 3 3 0 0 1 1 1 3 5 8 10 9 9 12 8 5 3 4 1 0 0 0 0 0 0 0 0 0 0 0 0 0 0 0 0 0 0 0 0 0 0 0 0 1 2 2 3 4 5 5 4 5 6 6 7 8 4 4 4 4 5 7 9 10 13 13 11 14 11 7 8 6 5 6 6
0 0 0 0 0 0 0 0 0 2 6 2 0 0 0 0 2 6 8 9 8 10 10 11 15 20 24 22 12 0 3 7 20 22 11 9 10 9 8 5 2 0 0 0 0 0 0 0 0 0 0 0 0 0 0 1 1 3 5 4 5 4 4 5 7 5 3 2 1 0 3 3 4 4 3 5 6 6 8 9 9 7 6 5 5
0 0 0 0 0 0 0 0 0 0 0 0 0 0 0 4 9 12 11 10 9 10 10 13 17 28 38 16 14 12 15 16 18 20 20 18 20 18 14 11 9 6 4 2 2 0 0 0 0 0 0 0 0 0 0 0 1 2 2 4 4 5 3 4 5 7 6 4 1 1 0 0 0 0 0 1 2 2 8 4 8 7 7 6 6
0 0 0 0 0 0 0 0 0 0 0 0 0 1 7 15 12 10 9 9 13 12 12 13 19 25 33 38 30 15 6 4 5 16 21 27 23 10 8 8 6 5 5 4 3 1 1 0 0 0 0 0 0 0 0 1 1 2 2 4 4 3 2 2 2 5 7 7 4 0 1 0 0 0 0 0 0 0 0 1 4 8 6 5 6
0 0 0 0 0 0 1 1 2 0 3 6 12 13 10 7 8 10 10 11 16 12 12 13 16 26 32 44 28 12 7 4 17 28 24 8 8 8 9 6 5 6 5 4 4 3 1 0 0 0 0 0 0 0 0 0 3 4 3 4 3 2 1 0 0 1 2 3 2 1 0 0 0 0 0 0 0 0 0 1 1 1 3 8 8
0 0 0 0 0 0 2 5 7 7 3 8 10 12 9 15 16 15 15 16 16 15 17 21 23 21 23 30 26 21 26 30 25 19 5 5 7 8 7 4 3 3 3 4 4 3 1 0 0 0 0 0 0 1 2 2 2 3 3 0 0 0 0 0 0 0 0 0 0 0 0 0 0 0 0 0 0 0 0 1 0 0 2 4 6
0 0 0 0 0 0 3 6 9 8 11 13 11 12 15 12 14 15 14 14 15 13 15 18 18 16 17 16 16 18 20 16 13 8 3 3 4 3 4 3 2 2 3 2 4 2 1 0 0 0 0 0 0 0 0 1 2 1 1 1 0 0 0 0 0 0 1 1 0 0 0 0 0 0 0 0 0 0 1 1 1 1 2 3 4
0 0 0 0 0 0 0 0 8 6 13 14 11 10 9 10 11 14 10 8 9 11 13 14 17 18 18 27 24 22 18 17 9 2 1 0 2 2 1 2 3 3 2 4 2 1 1 1 0 0 0 0 0 0 0 2 2 2 2 3 2 1 1 0 1 1 1 1 0 0 0 0 0 0 0 0 0 0 0 0 0 1 2 3 4
0 0 0 0 0 0 0 1 2 4 6 6 6 5 7 8 9 12 11 8 7 14 16 18 18 21 33 32 29 21 13 8 7 7 3 0 0 0 0 1 1 0 0 0 0 0 0 0 0 0 0 0 0 0 1 0 2 4 5 4 1 2 2 1 1 1 2 1 0 0 0 0 0 0 0 0 0 0 0 0 1 1 1 4 4
0 0 0 0 0 0 0 0 0 2 2 3 5 8 8 9 8 10 13 16 17 19 20 17 16 22 30 29 31 24 14 6 6 5 3 1 0 0 0 0 0 0 0 0 0 0 0 0 0 0 0 0 0 0 1 1 1 2 2 3 4 2 2 2 0 0 1 1 1 1 0 0 0 0 0 0 0 0 0 0 0 0 1 5 7
0 0 0 0 0 0 0 0 0 0 2 4 4 2 4 6 10 9 11 10 13 19 19 20 17 20 22 25 32 27 17 10 6 4 1 0 0 0 0 0 0 0 0 0 0 0 0 0 0 0 0 0 0 2 1 1 1 1 4 5 4 3 3 0 0 0 0 1 1 2 0 1 0 0 0 0 0 0 0 1 1 0 1 6 8
0 0 0 0 0 0 0 0 0 0 0 0 0 2 6 8 6 10 8 9 11 15 13 13 20 24 22 20 19 16 13 11 7 6 5 3 2 1 0 0 0 0 0 0 0 0 0 0 0 0 0 3 6 3 2 4 4 4 5 3 1 1 1 1 0 0 0 0 0 0 1 0 0 0 0 0 0 0 0 0 0 2 3 5 8
0 0 0 0 0 0 0 0 0 0 0 0 2 5 9 6 6 7 9 8 10 11 14 14 14 14 10 11 16 12 10 13 16 14 12 8 4 3 3 3 1 0 0 1 1 0 0 0 0 0 0 0 5 6 4 4 1 5 7 6 2 2 2 2 2 2 1 0 0 0 0 0 0 0 0 0 0 1 1 1 1 7 15 14 11
Wind_Speed
16 15 15 14 13 12 13 13 13 13 13 13 13 12 12 11 11 10 13 10 11 11 10 10 10 10 10 9 9 9 8 7 8 8 7 5 5 4 5 5 3 3 3 2 4 4 4 4 3 4 7 6 7 7 8 8 8 8 9 10 9 9 9 10 7 7 7 8 7 6 7 7 4 7 3 2 2 1 3 4 3 4 4 4 5
16 16 15 14 13 14 14 14 15 15 14 14 13 13 14 13 12 14 11 10 11 10 10 11 12 12 11 10 10 10 10 9 10 10 9 8 6 7 6 5 4 4 5 3 4 5 6 5 4 5 8 7 8 8 8 9 8 8 8 8 8 8 8 9 8 9 6 7 6 7 5 8 5 6 3 1 1 2 2 2 3 4 4 4 5
20 20 18 16 15 16 16 16 16 16 15 15 13 14 15 15 15 14 12 11 10 9 10 11 11 11 11 10 10 10 10 10 11 11 10 9 9 8 8 7 5 4 4 4 5 6 6 6 5 7 9 9 8 9 10 9 10 8 7 9 7 7 9 9 11 9 7 6 7 7 5 6 7 4 4 5 4 5 3 3 3 3 4 5 5
22 21 20 19 18 17 16 17 17 17 16 16 15 15 16 15 16 15 13 12 10 8 8 9 10 10 9 9 9 9 10 10 11 11 10 11 11 10 10 9 7 6 4 5 5 6 5 6 6 7 9 9 8 9 10 11 10 9 8 8 8 6 8 10 8 8 9 8 7 7 6 5 4 5 5 4 4 3 5 3 3 4 4 6 8
24 22 20 20 18 17 16 17 17 17 17 19 17 18 17 16 16 14 15 13 12 10 8 8 8 9 9 9 9 9 9 10 11 11 12 12 12 12 11 11 9 8 6 5 5 5 5 4 5 7 9 8 8 8 9 9 10 11 10 9 9 7 8 9 9 9 8 7 6 6 7 6 6 5 5 2 2 3 4 4 3 4 6 8 10
26 24 23 22 22 20 19 18 17 16 17 19 19 20 20 18 17 17 15 14 13 12 9 9 8 8 8 8 9 8 9 10 10 11 12 13 13 13 13 12 11 10 9 8 7 6 5 3 4 5 7 6 5 5 7 6 8 9 8 8 8 9 7 7 8 8 7 5 5 4 4 3 4 3 2 2 2 2 1 4 7 9 8 6 8
29 29 29 29 27 25 23 24 25 22 21 20 21 22 20 20 19 18 18 17 16 15 13 11 10 10 8 9 9 9 10 10 10 10 11 13 13 13 13 12 12 12 11 10 9 8 7 6 5 5 5 5 4 3 4 5 6 5 6 5 7 7 6 5 5 5 5 3 4 4 1 3 4 2 4 5 4 4 3 3 3 7 10 8 3
30 30 30 29 28 27 26 25 26 28 30 30 26 22 21 21 20 20 21 19 19 18 17 16 15 14 11 10 10 11 11 12 12 11 11 12 13 13 13 13 12 11 11 11 11 10 10 8 7 7 6 6 5 5 5 5 5 4 4 5 5 6 5 4 4 4 3 4 3 3 4 4 5 4 5 5 4 7 9 6 5 4 3 6 7
31 31 32 32 32 30 28 24 24 27 29 29 29 28 26 23 23 23 22 21 22 21 20 20 19 17 16 14 14 14 13 13 15 14 13 11 12 11 12 12 12 11 12 11 12 12 12 12 11 9 8 5 3 4 5 6 6 5 4 5 5 6 6 6 6 6 6 6 5 7 6 6 7 7 7 7 6 4 8 9 7 7 8 7 4
31 31 31 30 29 29 30 30 29 28 29 29 29 27 26 26 27 27 27 26 25 24 23 22 21 19 18 17 16 16 15 16 14 11 12 13 13 11 12 11 12 12 12 12 12 12 12 13 12 8 6 5 5 4 3 3 3 5 6 6 7 8 8 8 9 9 9 8 9 9 8 9 10 9 8 9 9 9 8 9 8 7 8 8 9
38 36 36 36 34 32 30 29 30 31 31 30 29 28 28 27 28 28 28 28 28 29 28 25 23 23 21 19 17 16 16 16 11 12 11 11 13 13 12 10 11 10 11 11 11 12 13 12 13 11 10 9 10 7 6 4 5 4 3 3 7 10 11 11 11 12 11 10 11 12 11 10 11 12 12 10 12 10 9 9 8 9 8 8 7
42 40 39 39 38 37 37 36 35 34 32 30 28 27 28 28 28 28 28 29 29 29 29 28 28 26 25 22 19 18 18 15 12 12 12 12 13 14 15 13 12 11 10 10 10 12 12 13 13 14 14 13 13 13 12 10 9 8 7 6 6 6 8 11 11 13 14 12 12 13 14 13 11 14 13 14 12 13 12 12 11 9 8 8 10
43 42 41 42 42 39 37 37 36 36 36 36 36 33 33 34 34 33 33 31 30 30 29 30 30 29 27 25 23 22 21 19 15 14 14 14 13 15 17 15 14 12 12 11 11 11 11 13 13 14 14 10 12 13 14 14 12 10 10 10 10 10 9 9 11 13 15 14 14 13 16 16 15 15 19 17 17 13 11 13 13 12 12 11 10
45 45 43 42 42 40 39 38 36 36 35 36 36 36 35 36 36 35 33 34 34 33 33 33 32 31 30 27 25 25 24 24 22 19 17 16 15 18 18 16 16 15 14 15 14 13 12 12 13 13 14 14 14 14 14 14 15 16 16 16 16 14 13 13 13 12 14 16 17 16 16 22 16 15 16 18 15 12 12 11 12 14 13 12 11
35 36 38 38 38 39 39 39 38 37 36 36 37 36 34 33 34 33 34 36 36 37 37 37 37 35 32 29 27 26 27 26 27 27 25 22 20 22 21 20 19 18 18 17 16 15 15 16 15 14 13 14 14 15 15 15 15 15 14 13 14 15 16 17 18 21 22 21 19 18 17 18 18 15 16 19 18 15 15 12 14 16 17 16 15
25 24 27 28 28 28 31 34 35 35 35 35 35 35 34 35 35 35 35 37 38 38 39 40 41 39 34 32 29 28 29 29 29 29 31 30 28 27 24 nan 21 20 20 21 20 20 20 19 18 17 15 14 13 13 14 16 16 14 12 12 13 14 14 14 13 14 17 20 20 19 18 18 17 17 17 19 20 21 20 19 20 21 20 16 14
27 24 22 23 24 22 23 26 28 29 30 30 31 30 31 32 34 35 38 38 39 39 39 39 37 35 33 31 31 31 33 32 34 34 35 35 33 31 28 25 23 22 22 23 23 24 24 22 22 21 20 18 16 16 17 20 17 14 13 11 11 11 12 15 16 15 14 13 12 nan nan nan nan nan nan nan nan 22 23 19 18 21 20 15 15
26 24 nan 23 24 25 25 25 26 25 26 26 24 23 23 25 27 30 33 36 38 39 40 40 39 37 35 34 31 33 36 40 44 42 39 35 33 32 30 28 25 24 24 25 26 26 25 21 21 23 21 20 19 20 23 26 21 18 16 13 11 10 12 16 19 18 18 16 nan nan nan nan nan nan nan nan nan nan nan 19 18 24 19 18 14
27 26 25 25 27 29 29 29 30 30 29 28 26 26 26 26 24 25 27 29 32 34 38 40 40 39 36 37 41 38 40 43 46 45 43 40 36 35 33 30 27 26 25 26 27 27 28 27 24 23 23 22 21 22 24 28 23 21 20 18 15 12 15 19 20 18 18 19 18 18 17 16 nan nan nan nan nan nan nan nan 22 24 19 18 17
nan nan nan nan nan 32 31 30 31 32 31 30 29 30 29 32 33 32 31 29 29 30 31 32 33 33 32 34 35 37 39 41 44 46 44 44 42 38 36 33 30 29 28 27 27 29 30 31 32 30 29 29 29 30 31 32 26 24 24 21 18 16 22 24 22 21 20 21 19 20 17 18 20 21 21 22 24 29 30 29 27 28 25 20 20
nan nan nan nan nan nan nan nan nan nan nan nan nan nan 31 33 34 34 34 33 34 34 32 29 27 28 30 32 34 35 36 38 43 50 49 49 48 44 41 39 34 32 31 30 30 29 31 33 33 43 43 40 38 36 35 34 32 29 27 24 22 23 28 26 23 22 23 22 22 22 22 22 22 23 23 24 24 27 30 30 30 31 30 26 23
nan nan nan nan nan nan nan nan nan nan nan nan nan nan nan nan nan nan nan nan nan 35 32 30 29 30 31 32 33 34 36 41 40 47 49 49 50 49 45 41 37 34 34 33 33 32 33 34 35 39 38 37 33 33 31 33 34 34 31 27 22 22 24 25 25 26 25 25 24 23 23 24 24 24 24 25 25 27 28 29 31 30 31 29 27
nan nan nan nan nan nan nan nan nan nan nan nan nan nan nan nan nan nan nan nan nan nan nan nan nan nan 33 33 32 33 34 36 41 43 47 48 49 48 44 40 37 38 38 38 38 36 36 36 36 39 38 35 34 33 33 32 34 34 29 28 27 27 29 30 30 29 28 27 27 24 25 26 26 26 28 28 28 29 29 30 31 33 33 31 29
nan nan nan nan nan nan nan nan nan nan nan nan nan nan nan nan nan nan nan nan nan nan nan nan nan nan nan nan nan nan 33 34 36 43 43 43 42 41 39 40 40 40 39 40 40 39 38 38 37 35 34 32 31 31 31 32 33 30 30 30 31 33 35 33 33 32 30 29 28 27 26 28 28 29 29 31 30 31 33 32 33 33 34 33 31
nan nan nan nan nan nan nan nan nan nan nan nan nan nan nan nan nan nan nan nan nan nan nan nan nan nan nan nan nan nan nan nan nan nan nan 37 37 37 36 37 41 39 39 41 42 41 38 35 34 34 33 31 30 31 32 30 28 29 30 31 34 38 37 36 35 35 33 31 30 29 28 28 30 29 30 31 31 33 33 34 34 34 34 34 32
nan nan nan nan nan nan nan nan nan nan nan nan nan nan nan nan nan nan nan nan nan nan nan nan nan nan nan nan nan nan nan nan nan nan nan nan nan nan 36 36 39 38 38 39 38 36 36 36 35 35 34 34 36 37 37 37 35 32 31 32 38 38 39 38 37 35 33 33 32 30 29 29 29 31 30 32 33 32 34 34 34 35 37 38 35
nan nan nan nan nan nan nan nan nan nan nan nan nan nan nan nan nan nan nan nan nan nan nan nan nan nan nan nan nan nan nan nan nan nan nan nan nan nan nan nan nan nan nan 38 38 37 36 37 37 34 33 32 33 33 34 35 37 38 39 40 40 40 40 40 38 36 35 33 32 32 32 31 31 31 32 33 32 33 36 36 35 34 38 40 37
nan nan nan nan nan nan nan nan nan nan nan nan nan nan nan nan nan nan nan nan nan nan nan nan nan nan nan nan nan nan nan nan nan nan nan nan nan nan nan nan nan nan nan nan nan nan nan nan nan 39 40 41 42 44 44 44 43 42 42 42 42 41 40 39 38 37 36 36 34 33 33 34 32 31 32 32 31 33 36 37 37 36 38 41 38
nan nan nan nan nan nan nan nan nan nan nan nan nan nan nan nan nan nan nan nan nan nan nan nan nan nan nan nan nan nan nan nan nan nan nan nan nan nan nan nan nan nan nan nan nan nan nan nan nan nan nan nan nan nan nan nan nan 45 44 44 43 43 43 43 42 41 41 39 36 35 33 34 31 33 32 31 31 33 36 36 37 37 38 40 37
nan nan nan nan nan nan nan nan nan nan nan nan nan nan nan nan nan nan nan nan nan nan nan nan nan nan nan nan nan nan nan nan nan nan nan nan nan nan nan nan nan nan nan nan nan nan nan nan nan nan nan nan nan nan nan nan nan nan nan nan 48 47 47 45 45 45 43 41 40 38 35 33 31 32 32 30 31 33 35 35 35 38 37 37 34
nan nan nan nan nan nan nan nan nan nan nan nan nan nan nan nan nan nan nan nan nan nan nan nan nan nan nan nan nan nan nan nan nan nan nan nan nan nan nan nan nan nan nan nan nan nan nan nan nan nan nan nan nan nan nan nan nan nan nan nan nan nan nan 49 50 48 46 nan 41 38 37 36 34 34 33 32 32 33 35 36 37 38 37 36 34
nan nan nan nan nan nan nan nan nan nan nan nan nan nan nan nan nan nan nan nan nan nan nan nan nan nan nan nan nan nan nan nan nan nan nan nan nan nan nan nan nan nan nan nan nan nan nan nan nan nan nan nan nan nan nan nan nan nan nan nan nan nan nan nan nan nan 45 46 46 43 40 38 37 35 34 33 33 33 34 35 37 39 39 38 36
nan nan nan nan nan nan nan nan nan nan nan nan nan nan nan nan nan nan nan nan nan nan nan nan nan nan nan nan nan nan nan nan nan nan nan nan nan nan nan nan nan nan nan nan nan nan nan nan nan nan nan nan nan nan nan nan nan nan nan nan nan nan nan nan nan nan nan nan nan 44 43 41 nan 40 37 35 34 34 34 35 36 37 38 37 37
nan nan nan nan nan nan nan nan nan nan nan nan nan nan nan nan nan nan nan nan nan nan nan nan nan nan nan nan nan nan nan nan nan nan nan nan nan nan nan nan nan nan nan nan nan nan nan nan nan nan nan nan nan nan nan nan nan nan nan nan nan nan nan nan nan nan nan nan nan nan nan nan nan nan nan nan 39 37 37 37 37 38 37 38 37
nan nan nan nan nan nan nan nan nan nan nan nan nan nan nan nan nan nan nan nan nan nan nan nan nan nan nan nan nan nan nan nan nan nan nan nan nan nan nan nan nan nan nan nan nan nan nan nan nan nan nan nan nan nan nan nan nan nan nan nan nan nan nan nan nan nan nan nan nan nan nan nan nan nan nan nan nan nan nan 43 43 42 40 39 40
nan nan nan nan nan nan nan nan nan nan nan nan nan nan nan nan nan nan nan nan nan nan nan nan nan nan nan nan nan nan nan nan nan nan nan nan nan nan nan nan nan nan nan nan nan nan nan nan nan nan nan nan nan nan nan nan nan nan nan nan nan nan nan nan nan nan nan nan nan nan nan nan nan nan nan nan nan nan nan nan nan nan nan 46 45
nan nan nan nan nan nan nan nan nan nan nan nan nan nan nan nan nan nan nan nan nan nan nan nan nan nan nan nan nan nan nan nan nan nan nan nan nan nan nan nan nan nan nan nan nan nan nan nan nan nan nan nan nan nan nan nan nan nan nan nan nan nan nan nan nan nan nan nan nan nan nan nan nan nan nan nan nan nan nan nan nan nan nan 50 49
nan nan nan nan nan nan nan nan nan nan nan nan nan nan nan nan nan nan nan nan nan nan nan nan nan nan nan nan nan nan nan nan nan nan nan nan nan nan nan nan nan nan nan nan nan nan nan nan nan nan nan nan nan nan nan nan nan nan nan nan nan nan nan nan nan nan nan nan nan nan nan nan nan nan nan nan nan nan nan nan nan nan nan nan nan
nan nan nan nan nan nan nan nan nan nan nan nan nan nan nan nan nan nan nan nan nan nan nan nan nan nan nan nan nan nan nan nan nan nan nan nan nan nan nan nan nan nan nan nan nan nan nan nan nan nan nan nan nan nan nan nan nan nan nan nan nan nan nan nan nan nan nan nan nan nan nan nan nan nan nan nan nan nan nan nan nan nan nan nan nan
nan nan nan nan nan nan nan nan nan nan nan nan nan nan nan nan nan nan nan nan nan nan nan nan nan nan nan nan nan nan nan nan nan nan nan nan nan nan nan nan nan nan nan nan nan nan nan nan nan nan nan nan nan nan nan nan nan nan nan nan nan nan nan nan nan nan nan nan nan nan nan nan nan nan nan nan nan nan nan nan nan nan nan nan nan
nan nan nan nan nan nan nan nan nan nan nan nan nan nan nan nan nan nan nan nan nan nan nan nan nan nan nan nan nan nan nan nan nan nan nan nan nan nan nan nan nan nan nan nan nan nan nan nan nan nan nan nan nan nan nan nan nan nan nan nan nan nan nan nan nan nan nan nan nan nan nan nan nan nan nan nan nan nan nan nan nan nan nan nan nan
nan nan nan nan nan nan nan nan nan nan nan nan nan nan nan nan nan nan nan nan nan nan nan nan nan nan nan nan nan nan nan nan nan nan nan nan nan nan nan nan nan nan nan nan nan nan nan nan nan nan nan nan nan nan nan nan nan nan nan nan nan nan nan nan nan nan nan nan nan nan nan nan nan nan nan nan nan nan nan nan nan nan nan nan nan
nan nan nan nan nan nan nan nan nan nan nan nan nan nan nan nan nan nan nan nan nan nan nan nan nan nan nan nan nan nan nan nan nan nan nan nan nan nan nan nan nan nan nan nan nan nan nan nan nan nan nan nan nan nan nan nan nan nan nan nan nan nan nan nan nan nan nan nan nan nan nan nan nan nan nan nan nan nan nan nan nan nan nan nan nan
nan nan nan nan nan nan nan nan nan nan nan nan nan nan nan nan nan nan nan nan nan nan nan nan nan nan nan nan nan nan nan nan nan nan nan nan nan nan nan nan nan nan nan nan nan nan nan nan nan nan nan nan nan nan nan nan nan nan nan nan nan nan nan nan nan nan nan nan nan nan nan nan nan nan nan nan nan nan nan nan nan nan nan nan nan
nan nan nan nan nan nan nan nan nan nan nan nan nan nan nan nan nan nan nan nan nan nan nan nan nan nan nan nan nan nan nan nan nan nan nan nan nan nan nan nan nan nan nan nan nan nan nan nan nan nan nan nan nan nan nan nan nan nan nan nan nan nan nan nan nan nan nan nan nan nan nan nan nan nan nan nan nan nan nan nan nan nan nan nan nan
nan nan nan nan nan nan nan nan nan nan nan nan nan nan nan nan nan nan nan nan nan nan nan nan nan nan nan nan nan nan nan nan nan nan nan nan nan nan nan nan nan nan nan nan nan nan nan nan nan nan nan nan nan nan nan nan nan nan nan nan nan nan nan nan nan nan nan nan nan nan nan nan nan nan nan nan nan nan nan nan nan nan nan nan nan
nan nan nan nan nan nan nan nan nan nan nan nan nan nan nan nan nan nan nan nan nan nan nan nan nan nan nan nan nan nan nan nan nan nan nan nan nan nan nan nan nan nan nan nan nan nan nan nan nan nan nan nan nan nan nan nan nan nan nan nan nan nan nan nan nan nan nan nan nan nan nan nan nan nan nan nan nan nan nan nan nan nan nan nan nan
nan nan nan nan nan nan nan nan nan nan nan nan nan nan nan nan nan nan nan nan nan nan nan nan nan nan nan nan nan nan nan nan nan nan nan nan nan nan nan nan nan nan nan nan nan nan nan nan nan nan nan nan nan nan nan nan nan nan nan nan nan nan nan nan nan nan nan nan nan nan nan nan nan nan nan nan nan nan nan nan nan nan nan nan nan
nan nan nan nan nan nan nan nan nan nan nan nan nan nan nan nan nan nan nan nan nan nan nan nan nan nan nan nan nan nan nan nan nan nan nan nan nan nan nan nan nan nan nan nan nan nan nan nan nan nan nan nan nan nan nan nan nan nan nan nan nan nan nan nan nan nan nan nan nan nan nan nan nan nan nan nan nan nan nan nan nan nan nan nan nan
nan nan nan nan nan nan nan nan nan nan nan nan nan nan nan nan nan nan nan nan nan nan nan nan nan nan nan nan nan nan nan nan nan nan nan nan nan nan nan nan nan nan nan nan nan nan nan nan nan nan nan nan nan nan nan nan nan nan nan nan nan nan nan nan nan nan nan nan nan nan nan nan nan nan nan nan nan nan nan nan nan nan nan nan nan
nan nan nan nan nan nan nan nan nan nan nan nan nan nan nan nan nan nan nan nan nan nan nan nan nan nan nan nan nan nan nan nan nan nan nan nan nan nan nan nan nan nan nan nan nan nan nan nan nan nan nan nan nan nan nan nan nan nan nan nan nan nan nan nan nan nan nan nan nan nan nan nan nan nan nan nan nan nan nan nan nan nan nan nan nan
Wind_Direction
228 225 224 216 219 222 226 229 232 230 233 234 235 234 235 233 231 227 233 231 237 238 238 237 238 238 239 239 243 249 254 251 251 254 258 257 249 246 247 256 258 248 249 244 271 284 290 288 271 263 259 246 239 240 241 251 254 252 252 254 255 259 266 258 250 237 238 262 268 272 264 268 277 308 302 312 300 292 311 346 345 353 17 28 38
223 228 226 221 215 212 215 222 226 228 234 234 232 233 235 235 234 236 238 237 247 246 248 242 242 245 244 246 248 251 255 258 257 258 262 262 257 253 254 254 248 233 243 232 246 262 271 274 271 267 271 266 254 250 253 259 268 267 266 267 267 265 264 265 263 263 242 244 257 275 272 288 292 292 319 299 350 333 338 340 354 4 27 33 26
219 224 224 220 214 212 212 214 219 223 227 230 231 233 234 234 236 240 237 238 246 249 249 247 248 250 249 248 251 251 255 257 256 262 262 265 261 257 255 260 254 240 236 222 226 241 247 258 255 262 267 269 269 262 261 264 269 274 276 278 280 275 277 282 276 270 270 265 273 264 278 274 292 287 299 320 333 325 335 355 21 25 10 27 25
219 221 223 221 218 216 213 214 216 217 219 223 227 230 233 235 238 241 240 241 249 249 250 248 249 251 252 252 254 254 259 260 263 264 264 263 259 256 257 256 249 242 232 221 225 234 233 229 232 247 258 264 259 259 260 264 266 273 275 280 286 289 287 285 291 292 283 283 284 298 289 280 293 306 309 317 325 324 328 349 3 13 21 10 7
220 218 223 225 222 217 214 216 217 215 213 216 220 227 229 231 235 239 241 241 246 251 250 251 249 251 251 258 261 265 269 271 271 267 262 259 257 253 253 253 248 244 238 232 226 233 229 225 211 229 247 252 253 254 259 259 264 267 271 276 284 287 281 286 289 287 288 292 281 289 283 289 299 298 308 326 303 317 324 358 6 358 7 0 349
225 222 220 224 222 219 213 211 212 215 218 220 220 223 224 226 227 227 232 235 237 240 247 247 253 260 261 262 267 271 273 275 276 272 267 262 257 253 250 250 249 247 244 241 241 244 236 228 216 228 239 250 243 246 254 258 260 267 275 281 287 287 287 284 287 289 291 291 292 251 270 264 258 282 296 303 274 257 324 349 342 339 343 339 339
227 225 223 223 224 222 214 207 204 204 210 217 223 225 226 226 226 225 226 226 229 229 229 233 237 247 253 259 264 271 278 280 276 274 268 263 262 258 252 248 248 248 248 246 244 246 245 235 227 231 237 245 234 231 242 251 255 262 279 283 283 286 289 298 298 301 301 294 285 309 264 262 271 198 257 269 269 301 312 278 274 306 322 332 329
229 227 227 228 226 224 222 216 216 214 212 210 211 219 225 227 227 227 228 225 225 225 224 223 223 228 233 245 251 258 267 270 272 270 266 267 266 264 259 252 246 244 245 248 248 247 249 245 237 234 234 234 233 221 237 228 242 236 247 263 267 272 274 283 288 289 287 286 282 234 268 232 229 258 256 255 257 284 304 305 293 282 279 306 320
224 228 226 221 218 218 219 222 224 222 220 221 217 215 218 223 226 226 227 227 228 228 225 224 222 220 220 225 235 244 253 258 261 265 269 273 269 269 270 266 256 246 240 238 242 243 243 243 242 241 242 234 237 227 228 243 240 224 222 253 250 257 254 257 260 256 257 260 246 263 256 252 260 247 233 251 276 278 289 289 286 290 298 297 292
228 227 228 227 224 220 218 216 219 226 227 226 221 218 219 223 227 228 225 225 224 226 228 230 231 229 226 224 228 235 242 250 259 279 277 267 269 263 261 263 263 258 251 244 240 242 242 243 242 237 233 232 238 243 237 231 236 243 228 244 249 255 260 256 258 263 258 253 259 258 255 264 267 271 277 286 286 296 296 295 289 278 281 299 302
230 229 230 229 227 225 225 224 223 225 231 235 234 229 224 223 224 225 226 226 226 228 229 229 232 235 238 236 235 236 238 244 261 275 284 289 267 263 261 257 260 261 260 260 254 252 251 251 247 243 239 233 237 245 259 265 261 258 235 236 255 263 259 260 262 267 265 266 266 272 276 270 271 281 291 285 291 301 295 283 286 285 287 271 266
232 231 232 232 230 228 228 230 230 230 233 238 241 240 238 234 231 230 229 229 232 233 232 231 231 232 235 236 236 236 238 243 256 265 272 277 273 262 258 254 254 254 252 254 253 255 256 257 256 254 253 254 250 245 246 251 258 262 262 256 254 262 270 269 263 262 271 268 269 275 276 277 277 280 283 289 294 295 296 289 290 293 284 284 287
233 233 233 232 229 228 229 232 234 234 233 236 240 242 243 241 238 237 236 236 236 235 234 233 232 233 234 234 234 234 235 237 243 253 260 266 272 266 253 255 254 253 253 251 245 243 246 252 253 257 255 261 260 258 256 250 250 255 255 253 251 263 273 282 282 278 267 271 273 273 283 280 280 283 289 292 293 289 279 281 285 287 289 285 288
232 232 232 231 229 228 230 232 233 232 230 231 233 235 239 240 239 238 241 243 241 238 236 234 235 233 232 233 235 237 238 234 232 240 247 254 260 264 255 255 254 253 253 255 253 249 245 243 244 243 252 257 257 259 260 257 253 251 253 258 260 259 266 279 285 292 285 276 276 278 281 286 290 287 290 293 290 288 279 278 273 275 275 281 278
231 230 230 230 230 229 229 230 232 231 232 233 233 235 236 237 236 235 235 236 238 240 240 236 232 231 229 231 233 236 240 238 236 236 239 245 248 255 252 251 251 252 253 255 257 257 256 254 252 249 241 247 255 262 258 258 256 257 256 258 262 263 265 267 274 276 279 281 284 285 284 287 292 293 290 292 299 296 288 276 264 265 264 263 271
225 226 227 225 226 225 226 227 229 230 231 235 237 236 235 236 238 238 237 236 238 239 240 239 235 232 230 229 230 235 238 237 237 238 240 242 250 255 256 nan 255 254 253 253 254 256 258 261 262 262 259 256 255 262 263 257 259 261 262 263 266 273 279 286 292 287 286 287 289 289 289 292 297 296 293 290 289 288 280 273 267 268 266 265 268
228 229 233 230 227 225 226 227 227 226 225 228 231 234 234 235 236 237 239 238 240 240 238 237 237 233 229 231 232 233 237 235 232 235 243 247 256 257 257 256 256 257 258 257 256 257 259 262 265 265 267 269 269 272 272 271 269 272 272 270 270 271 274 276 294 308 311 314 317 nan nan nan nan nan nan nan nan 280 273 273 273 272 273 268 264
231 231 nan 238 239 237 233 232 233 233 232 231 231 232 231 230 231 234 237 238 240 240 240 240 241 238 233 232 235 238 239 237 234 233 239 245 250 253 254 254 254 254 255 257 259 260 261 264 265 267 269 269 271 275 280 282 283 285 282 277 270 270 266 268 266 277 299 309 nan nan nan nan nan nan nan nan nan nan nan 288 281 278 282 284 276
234 231 232 238 242 244 244 243 242 242 241 240 240 238 234 234 236 239 240 239 240 240 241 243 245 245 241 239 239 240 240 239 236 235 236 240 247 251 250 250 248 250 251 254 259 261 261 261 259 256 256 256 258 266 274 281 280 280 279 275 274 268 266 263 267 269 270 276 283 286 287 294 nan nan nan nan nan nan nan nan 287 288 291 289 286
nan nan nan nan nan 248 250 248 246 244 242 242 244 246 245 245 245 248 248 247 246 244 244 245 248 250 246 244 246 243 241 241 239 236 237 239 244 249 251 246 242 242 244 247 250 256 260 261 262 261 254 247 244 246 252 262 267 265 267 271 269 265 261 266 276 277 277 280 281 284 287 284 286 289 288 288 290 295 298 300 301 301 303 301 298
nan nan nan nan nan nan nan nan nan nan nan nan nan nan 249 250 251 250 250 248 248 248 248 249 251 253 251 248 247 246 244 243 241 242 241 240 241 246 250 246 243 242 242 243 246 248 253 258 261 261 259 257 254 252 255 260 270 271 271 270 268 255 251 262 266 269 272 274 276 280 283 285 286 286 286 287 288 290 295 301 304 306 306 305 301
nan nan nan nan nan nan nan nan nan nan nan nan nan nan nan nan nan nan nan nan nan 252 254 255 256 256 254 249 246 245 243 241 244 246 243 241 240 241 248 250 249 248 246 246 246 248 250 255 258 264 258 257 256 258 260 264 270 273 274 276 267 258 262 267 267 270 274 276 278 281 284 286 287 289 290 291 292 292 295 299 301 303 304 305 304
nan nan nan nan nan nan nan nan nan nan nan nan nan nan nan nan nan nan nan nan nan nan nan nan nan nan 254 252 250 247 244 245 242 249 246 241 238 236 239 246 247 252 253 252 250 249 249 250 252 250 247 250 254 256 257 259 264 271 270 269 269 266 266 270 270 271 273 275 277 280 281 283 286 288 290 290 292 293 295 298 298 299 299 302 305
nan nan nan nan nan nan nan nan nan nan nan nan nan nan nan nan nan nan nan nan nan nan nan nan nan nan nan nan nan nan 249 247 244 247 245 241 240 237 236 240 249 253 255 255 253 252 251 250 248 242 243 246 249 253 257 261 266 263 264 266 267 268 270 270 272 272 272 273 276 278 280 282 283 284 287 288 290 291 293 294 295 297 297 297 300
nan nan nan nan nan nan nan nan nan nan nan nan nan nan nan nan nan nan nan nan nan nan nan nan nan nan nan nan nan nan nan nan nan nan nan 244 247 242 239 241 243 246 251 253 253 253 249 244 243 244 246 247 248 251 255 260 266 268 267 267 266 269 271 272 272 273 275 278 279 279 280 282 283 283 283 284 286 286 289 289 290 291 292 292 293
nan nan nan nan nan nan nan nan nan nan nan nan nan nan nan nan nan nan nan nan nan nan nan nan nan nan nan nan nan nan nan nan nan nan nan nan nan nan 241 242 242 241 246 252 248 246 245 245 244 246 249 253 256 257 257 256 253 253 256 260 265 267 269 269 270 272 273 276 277 279 280 278 280 281 281 282 285 288 287 285 285 288 289 289 290
nan nan nan nan nan nan nan nan nan nan nan nan nan nan nan nan nan nan nan nan nan nan nan nan nan nan nan nan nan nan nan nan nan nan nan nan nan nan nan nan nan nan nan 248 247 249 246 247 250 248 253 251 254 258 257 254 256 259 261 264 265 267 268 269 270 270 268 267 269 272 272 272 271 273 277 280 282 283 283 282 282 283 284 285 287
nan nan nan nan nan nan nan nan nan nan nan nan nan nan nan nan nan nan nan nan nan nan nan nan nan nan nan nan nan nan nan nan nan nan nan nan nan nan nan nan nan nan nan nan nan nan nan nan nan 253 253 254 254 254 254 255 255 255 257 260 264 267 268 270 269 267 266 267 266 264 265 267 268 270 270 273 275 276 277 278 279 279 279 281 283
nan nan nan nan nan nan nan nan nan nan nan nan nan nan nan nan nan nan nan nan nan nan nan nan nan nan nan nan nan nan nan nan nan nan nan nan nan nan nan nan nan nan nan nan nan nan nan nan nan nan nan nan nan nan nan nan nan 251 253 255 256 259 264 265 265 265 266 266 264 263 262 264 264 266 266 267 270 271 273 275 278 278 278 281 284
nan nan nan nan nan nan nan nan nan nan nan nan nan nan nan nan nan nan nan nan nan nan nan nan nan nan nan nan nan nan nan nan nan nan nan nan nan nan nan nan nan nan nan nan nan nan nan nan nan nan nan nan nan nan nan nan nan nan nan nan 252 254 256 259 260 259 259 262 263 264 263 263 261 263 262 261 263 268 272 275 275 278 279 281 283
nan nan nan nan nan nan nan nan nan nan nan nan nan nan nan nan nan nan nan nan nan nan nan nan nan nan nan nan nan nan nan nan nan nan nan nan nan nan nan nan nan nan nan nan nan nan nan nan nan nan nan nan nan nan nan nan nan nan nan nan nan nan nan 255 254 251 251 nan 255 258 261 263 263 264 263 264 265 267 269 273 277 279 281 282 284
nan nan nan nan nan nan nan nan nan nan nan nan nan nan nan nan nan nan nan nan nan nan nan nan nan nan nan nan nan nan nan nan nan nan nan nan nan nan nan nan nan nan nan nan nan nan nan nan nan nan nan nan nan nan nan nan nan nan nan nan nan nan nan nan nan nan 250 250 250 248 249 251 255 258 260 262 263 265 269 271 275 279 281 283 284
nan nan nan nan nan nan nan nan nan nan nan nan nan nan nan nan nan nan nan nan nan nan nan nan nan nan nan nan nan nan nan nan nan nan nan nan nan nan nan nan nan nan nan nan nan nan nan nan nan nan nan nan nan nan nan nan nan nan nan nan nan nan nan nan nan nan nan nan nan 250 249 249 nan 249 253 257 262 264 268 271 273 275 277 279 281
nan nan nan nan nan nan nan nan nan nan nan nan nan nan nan nan nan nan nan nan nan nan nan nan nan nan nan nan nan nan nan nan nan nan nan nan nan nan nan nan nan nan nan nan nan nan nan nan nan nan nan nan nan nan nan nan nan nan nan nan nan nan nan nan nan nan nan nan nan nan nan nan nan nan nan nan 253 258 263 268 270 272 274 277 278
nan nan nan nan nan nan nan nan nan nan nan nan nan nan nan nan nan nan nan nan nan nan nan nan nan nan nan nan nan nan nan nan nan nan nan nan nan nan nan nan nan nan nan nan nan nan nan nan nan nan nan nan nan nan nan nan nan nan nan nan nan nan nan nan nan nan nan nan nan nan nan nan nan nan nan nan nan nan nan 260 263 266 268 271 274
nan nan nan nan nan nan nan nan nan nan nan nan nan nan nan nan nan nan nan nan nan nan nan nan nan nan nan nan nan nan nan nan nan nan nan nan nan nan nan nan nan nan nan nan nan nan nan nan nan nan nan nan nan nan nan nan nan nan nan nan nan nan nan nan nan nan nan nan nan nan nan nan nan nan nan nan nan nan nan nan nan nan nan 265 266
nan nan nan nan nan nan nan nan nan nan nan nan nan nan nan nan nan nan nan nan nan nan nan nan nan nan nan nan nan nan nan nan nan nan nan nan nan nan nan nan nan nan nan nan nan nan nan nan nan nan nan nan nan nan nan nan nan nan nan nan nan nan nan nan nan nan nan nan nan nan nan nan nan nan nan nan nan nan nan nan nan nan nan 261 262
nan nan nan nan nan nan nan nan nan nan nan nan nan nan nan nan nan nan nan nan nan nan nan nan nan nan nan nan nan nan nan nan nan nan nan nan nan nan nan nan nan nan nan nan nan nan nan nan nan nan nan nan nan nan nan nan nan nan nan nan nan nan nan nan nan nan nan nan nan nan nan nan nan nan nan nan nan nan nan nan nan nan nan nan nan
nan nan nan nan nan nan nan nan nan nan nan nan nan nan nan nan nan nan nan nan nan nan nan nan nan nan nan nan nan nan nan nan nan nan nan nan nan nan nan nan nan nan nan nan nan nan nan nan nan nan nan nan nan nan nan nan nan nan nan nan nan nan nan nan nan nan nan nan nan nan nan nan nan nan nan nan nan nan nan nan nan nan nan nan nan
nan nan nan nan nan nan nan nan nan nan nan nan nan nan nan nan nan nan nan nan nan nan nan nan nan nan nan nan nan nan nan nan nan nan nan nan nan nan nan nan nan nan nan nan nan nan nan nan nan nan nan nan nan nan nan nan nan nan nan nan nan nan nan nan nan nan nan nan nan nan nan nan nan nan nan nan nan nan nan nan nan nan nan nan nan
nan nan nan nan nan nan nan nan nan nan nan nan nan nan nan nan nan nan nan nan nan nan nan nan nan nan nan nan nan nan nan nan nan nan nan nan nan nan nan nan nan nan nan nan nan nan nan nan nan nan nan nan nan nan nan nan nan nan nan nan nan nan nan nan nan nan nan nan nan nan nan nan nan nan nan nan nan nan nan nan nan nan nan nan nan
nan nan nan nan nan nan nan nan nan nan nan nan nan nan nan nan nan nan nan nan nan nan nan nan nan nan nan nan nan nan nan nan nan nan nan nan nan nan nan nan nan nan nan nan nan nan nan nan nan nan nan nan nan nan nan nan nan nan nan nan nan nan nan nan nan nan nan nan nan nan nan nan nan nan nan nan nan nan nan nan nan nan nan nan nan
nan nan nan nan nan nan nan nan nan nan nan nan nan nan nan nan nan nan nan nan nan nan nan nan nan nan nan nan nan nan nan nan nan nan nan nan nan nan nan nan nan nan nan nan nan nan nan nan nan nan nan nan nan nan nan nan nan nan nan nan nan nan nan nan nan nan nan nan nan nan nan nan nan nan nan nan nan nan nan nan nan nan nan nan nan
nan nan nan nan nan nan nan nan nan nan nan nan nan nan nan nan nan nan nan nan nan nan nan nan nan nan nan nan nan nan nan nan nan nan nan nan nan nan nan nan nan nan nan nan nan nan nan nan nan nan nan nan nan nan nan nan nan nan nan nan nan nan nan nan nan nan nan nan nan nan nan nan nan nan nan nan nan nan nan nan nan nan nan nan nan
nan nan nan nan nan nan nan nan nan nan nan nan nan nan nan nan nan nan nan nan nan nan nan nan nan nan nan nan nan nan nan nan nan nan nan nan nan nan nan nan nan nan nan nan nan nan nan nan nan nan nan nan nan nan nan nan nan nan nan nan nan nan nan nan nan nan nan nan nan nan nan nan nan nan nan nan nan nan nan nan nan nan nan nan nan
nan nan nan nan nan nan nan nan nan nan nan nan nan nan nan nan nan nan nan nan nan nan nan nan nan nan nan nan nan nan nan nan nan nan nan nan nan nan nan nan nan nan nan nan nan nan nan nan nan nan nan nan nan nan nan nan nan nan nan nan nan nan nan nan nan nan nan nan nan nan nan nan nan nan nan nan nan nan nan nan nan nan nan nan nan
nan nan nan nan nan nan nan nan nan nan nan nan nan nan nan nan nan nan nan nan nan nan nan nan nan nan nan nan nan nan nan nan nan nan nan nan nan nan nan nan nan nan nan nan nan nan nan nan nan nan nan nan nan nan nan nan nan nan nan nan nan nan nan nan nan nan nan nan nan nan nan nan nan nan nan nan nan nan nan nan nan nan nan nan nan
nan nan nan nan nan nan nan nan nan nan nan nan nan nan nan nan nan nan nan nan nan nan nan nan nan nan nan nan nan nan nan nan nan nan nan nan nan nan nan nan nan nan nan nan nan nan nan nan nan nan nan nan nan nan nan nan nan nan nan nan nan nan nan nan nan nan nan nan nan nan nan nan nan nan nan nan nan nan nan nan nan nan nan nan nan
nan nan nan nan nan nan nan nan nan nan nan nan nan nan nan nan nan nan nan nan nan nan nan nan nan nan nan nan nan nan nan nan nan nan nan nan nan nan nan nan nan nan nan nan nan nan nan nan nan nan nan nan nan nan nan nan nan nan nan nan nan nan nan nan nan nan nan nan nan nan nan nan nan nan nan nan nan nan nan nan nan nan nan nan nan
nan nan nan nan nan nan nan nan nan nan nan nan nan nan nan nan nan nan nan nan nan nan nan nan nan nan nan nan nan nan nan nan nan nan nan nan nan nan nan nan nan nan nan nan nan nan nan nan nan nan nan nan nan nan nan nan nan nan nan nan nan nan nan nan nan nan nan nan nan nan nan nan nan nan nan nan nan nan nan nan nan nan nan nan nan
nan nan nan nan nan nan nan nan nan nan nan nan nan nan nan nan nan nan nan nan nan nan nan nan nan nan nan nan nan nan nan nan nan nan nan nan nan nan nan nan nan nan nan nan nan nan nan nan nan nan nan nan nan nan nan nan nan nan nan nan nan nan nan nan nan nan nan nan nan nan nan nan nan nan nan nan nan nan nan nan nan nan nan nan nan